Regional Weather Roundup
Issued by NWS

Home | Current Version | Previous Version | Text Only | Print | Product List | Glossary On
Versions: 1 2 3 4 5 6 7 8 9 10 11 12 13 14 15 16 17 18 19 20 21 22 23 24 25 26 27 28 29 30 31 32 33 34 35 36 37 38 39 40 41 42 43 44 45 46 47 48 49 50
000
ASUS44 KFWD 140603
RWRTX
NORTH TEXAS HOURLY WEATHER ROUNDUP
NATIONAL WEATHER SERVICE FORT WORTH TX
1200 AM CST SUN FEB 14 2016

NOTE: "FAIR" INDICATES FEW OR NO CLOUDS BELOW 12,000 FEET WITH NO
SIGNIFICANT WEATHER AND/OR OBSTRUCTIONS TO VISIBILITY.

TXZ118-119-140700-
DALLAS/FORT WORTH METROPLEX

CITY           SKY/WX    TMP DP  RH WIND       PRES   REMARKS
DFW AIRPORT    PTCLDY    59  47  64 S18       30.04F
6HR MIN TEMP:  58; 6HR MAX TEMP:  63;

DALLAS LOVE    PTCLDY    57  45  64 S20       30.07F
6HR MIN TEMP:  57; 6HR MAX TEMP:  63;

FTW MEACHAM    PTCLDY    59  50  72 SE17      30.03F
6HR MIN TEMP:  59; 6HR MAX TEMP:  66;

DAL-EXECUTIVE  PTCLDY    57  47  69 S13G22    30.07F
6HR MIN TEMP:  57; 6HR MAX TEMP:  62;

FTW-ALLIANCE   MOCLDY    58  48  69 S14       30.02F
6HR MIN TEMP:  57; 6HR MAX TEMP:  63;

FTW-NAS-JRB    PTCLDY    60  51  72 SE14      30.04F
6HR MIN TEMP:  59; 6HR MAX TEMP:  67;

FTW-SPINKS     PTCLDY    59  53  79 S15G22    30.07F
6HR MIN TEMP:  57; 6HR MAX TEMP:  66;

ARLINGTON      MOCLDY    59  48  67 SE15      30.07F
6HR MIN TEMP:  59; 6HR MAX TEMP:  65;

GRAND PRAIRIE  CLOUDY    58  48  68 SE12G18   30.09F
6HR MIN TEMP:  58; 6HR MAX TEMP:  64;

ADDISON        CLEAR     58  47  67 SE17G25   30.07F
6HR MIN TEMP:  57; 6HR MAX TEMP:  63;

MESQUITE       MOCLDY    56  44  62 SE13G18   30.09F
6HR MIN TEMP:  55; 6HR MAX TEMP:  62;

LANCASTER      MOCLDY    55  43  63 SE13      30.10F
6HR MIN TEMP:  55; 6HR MAX TEMP:  64;

$$

TXZ091>094-102>105-117-120-121-131>134-140700-
NORTH CENTRAL TEXAS

CITY           SKY/WX    TMP DP  RH WIND       PRES   REMARKS
SHRMAN/DENISON CLEAR     52  38  58 SE18      30.05F
6HR MIN TEMP:  51; 6HR MAX TEMP:  58;

GAINESVILLE    CLEAR     51  40  65 SE12      30.04F
6HR MIN TEMP:  51; 6HR MAX TEMP:  57;

BRIDGEPORT     CLEAR     61  53  74 S13G24    30.02F
6HR MIN TEMP:  57; 6HR MAX TEMP:  63;

DECATUR        CLEAR     55  46  70 SE13      30.01F
6HR MIN TEMP:  55; 6HR MAX TEMP:  60;

DENTON         LGT RAIN  56  44  64 SE18      30.03F
6HR MIN TEMP:  56; 6HR MAX TEMP:  61; 6HR PCP: TRACE;

MCKINNEY       CLEAR     52  40  63 SE12      30.06F
6HR MIN TEMP:  52; 6HR MAX TEMP:  60;

GREENVILLE     MOCLDY    54  37  54 SE12G18   30.10F
ROCKWALL       PTCLDY    55  42  63 S13G18    30.08F
6HR MIN TEMP:  53; 6HR MAX TEMP:  61;

TERRELL        CLOUDY    57  44  62 S15       30.11F
6HR MIN TEMP:  55; 6HR MAX TEMP:  60;

WAXAHACHIE     CLOUDY    56  49  79 SE12      30.10F
6HR MIN TEMP:  56; 6HR MAX TEMP:  63;

CLEBURNE       MOCLDY    57  55  94 S14       30.08F
GRANBURY       PTCLDY    63  51  66 SE15      30.04F
6HR MIN TEMP:  63; 6HR MAX TEMP:  67;

$$

TXZ083>090-098>101-113>116-127>130-139>142-154-155-140700-
WESTERN NORTH TEXAS

CITY           SKY/WX    TMP DP  RH WIND       PRES   REMARKS
WICHITA FALLS  CLEAR     55  48  77 S15       29.94F
6HR MIN TEMP:  54; 6HR MAX TEMP:  62;

WF-KICKAPOO    CLEAR     55  49  80 S12       29.96F
6HR MIN TEMP:  55; 6HR MAX TEMP:  65;

VERNON         CLEAR     53  42  66 S9        29.93F
6HR MIN TEMP:  53; 6HR MAX TEMP:  60;

ABILENE        CLEAR     58  40  51 S14       30.00F
6HR MIN TEMP:  58; 6HR MAX TEMP:  73;

ABILENE-DYESS  CLEAR     61  42  50 S23       29.96F
6HR MIN TEMP:  56; 6HR MAX TEMP:  72;

MINERAL WELLS  CLEAR     60  51  72 S15       30.00F
6HR MIN TEMP:  59; 6HR MAX TEMP:  65;

STEPHENVILLE   MOCLDY    58  50  74 S13       30.06F
6HR MIN TEMP:  58; 6HR MAX TEMP:  68;

COMANCHE       PTCLDY    58  51  77 S18       30.04F
6HR MIN TEMP:  55; 6HR MAX TEMP:  69;

BROWNWOOD      PTCLDY    57  46  67 SE13      30.05F
$$

TXZ143>147-156>162-174-175-140700-
CENTRAL TEXAS

CITY           SKY/WX    TMP DP  RH WIND       PRES   REMARKS
WACO           CLOUDY    59  54  83 S14       30.12S
6HR MIN TEMP:  57; 6HR MAX TEMP:  66;

WACO-MCGREGOR  CLOUDY    59  53  80 S16       30.11F
6HR MIN TEMP:  59; 6HR MAX TEMP:  68;

HILLSBORO      CLOUDY    59  52  78 SE17G24   30.10F
6HR MIN TEMP:  59; 6HR MAX TEMP:  67;

CORSICANA      MOCLDY    60  52  74 S15       30.14F
6HR MIN TEMP:  58; 6HR MAX TEMP:  65;

HEARNE         CLOUDY    59  55  86 SE10      30.17S
6HR MIN TEMP:  58; 6HR MAX TEMP:  70;

TEMPLE         PTCLDY    58  52  80 S14       30.13F
6HR MIN TEMP:  58; 6HR MAX TEMP:  68;

KILLEEN        CLOUDY    58  52  81 S13G21    30.10F
6HR MIN TEMP:  57; 6HR MAX TEMP:  67;

KILLEEN-SKYLRK PTCLDY    59  52  77 S12       30.11F
6HR MIN TEMP:  59; 6HR MAX TEMP:  69;

FORT HOOD      CLOUDY    58  52  80 S9        30.09F
6HR MIN TEMP:  58; 6HR MAX TEMP:  68;

HAMILTON       PTCLDY    59  52  77 S17G23    30.09F
6HR MIN TEMP:  56; 6HR MAX TEMP:  69;

LAMPASAS       CLEAR     58  53  82 S10       30.09F
6HR MIN TEMP:  58; 6HR MAX TEMP:  71;

$$

TXZ095>097-106>112-122>126-135>138-148>153-164>167-140700-
EAST TEXAS

CITY           SKY/WX    TMP DP  RH WIND       PRES   REMARKS
PARIS          CLOUDY    48  28  46 SE15      30.14F
6HR MIN TEMP:  46; 6HR MAX TEMP:  54;

SULPHUR SPRNGS CLOUDY    53  37  53 SE13G18   30.14F
6HR MIN TEMP:  51; 6HR MAX TEMP:  57;

GILMER         CLOUDY    50  33  52 SE12G17   30.18S
6HR MIN TEMP:  50; 6HR MAX TEMP:  56;

MINEOLA        CLOUDY    54  37  54 SE8       30.16F
TYLER          CLOUDY    55  39  54 SE12      30.16S
6HR MIN TEMP:  54; 6HR MAX TEMP:  61;

LONGVIEW       CLOUDY    49  33  54 SE10      30.19F
6HR MIN TEMP:  49; 6HR MAX TEMP:  57;

MARSHALL       CLOUDY    45  24  43 SE3       30.24F
6HR MIN TEMP:  45; 6HR MAX TEMP:  55;

ATHENS         CLOUDY    54  43  66 S6        30.14S
PALESTINE      CLOUDY    58  49  74 S8        30.18F
JACKSONVILLE   CLOUDY    55  43  64 S9        30.18F
CENTER         CLOUDY    52  36  54 E8        30.21F
6HR MIN TEMP:  51; 6HR MAX TEMP:  60;

NACOGDOCHES    CLOUDY    54  41  62 SE5       30.19F
6HR MIN TEMP:  54; 6HR MAX TEMP:  61;

LUFKIN         CLOUDY    57  43  59 SE10      30.19F
6HR MIN TEMP:  51; 6HR MAX TEMP:  59;

$$

SUPPLEMENTAL OBSERVATIONS (CENTRAL)

CITY           SKY/WX    TMP DP  RH WIND       PRES   REMARKS
$$

SUPPLEMENTAL OBSERVATIONS (WEST)

CITY           SKY/WX    TMP DP  RH WIND       PRES   REMARKS
$$

SUPPLEMENTAL OBSERVATIONS (EAST)

CITY           SKY/WX    TMP DP  RH WIND       PRES   REMARKS
$$

SUPPLEMENTAL OBSERVATIONS ARE A COLLECTION OF AUTOMATED INSTRUMENTS
THAT ARE MAINTAINED BY A VARIETY OF FEDERAL AND STATE AGENCIES.
CERTAIN ELEMENTS...SUCH AS HUMIDITY VALUES AND SUSTAINED WIND
SPEEDS...MAY BE APPROXIMATED.




USA.gov is the U.S. government's official web portal to all federal, state and local government web resources and services.